Temperature
17 16 15 14 13 12 11 11 10 9 8 7 7 6 6 6 5 4 4 3 3 2 1 1 -0 -1 -2 -3 -4 -4 -4 -5 -6 -7 -7 -6 -6 -6 -7 -8 -8 -8 -8
18 17 16 15 14 13 13 12 11 10 10 9 8 7 6 5 4 4 3 3 3 2 1 1 -0 -1 -2 -2 -4 -4 -5 -5 -6 -8 -9 -9 -8 -8 -8 -8 -8 -8 -8
19 19 17 16 15 15 15 14 14 12 11 10 8 6 5 5 4 4 4 3 3 2 1 1 -0 -1 -2 -2 -3 -4 -5 -6 -6 -8 -9 -10 -11 -11 -9 -8 -9 -9 -9
20 20 19 18 17 17 16 15 15 14 12 10 9 8 7 7 6 5 4 3 2 2 1 0 -0 -1 -2 -2 -3 -4 -5 -6 -6 -7 -8 -9 -11 -12 -11 -10 -9 -10 -10
21 20 20 19 19 18 17 16 15 14 13 12 10 9 8 7 6 4 3 3 2 2 1 0 -0 -1 -2 -3 -3 -4 -5 -6 -7 -8 -8 -9 -10 -10 -12 -12 -10 -10 -10
21 21 20 20 19 18 17 17 16 15 14 13 11 10 9 7 6 5 4 3 3 2 1 0 -0 -1 -2 -3 -3 -4 -5 -6 -7 -8 -8 -9 -10 -10 -11 -12 -11 -11 -11
20 21 21 20 20 19 18 18 17 16 15 14 13 11 10 8 6 5 4 3 3 2 1 0 -0 -1 -2 -3 -4 -4 -5 -6 -7 -7 -8 -9 -9 -9 -10 -11 -11 -11 -11
20 21 21 20 20 19 19 18 17 17 16 15 14 12 11 8 7 5 4 3 3 2 1 0 -1 -1 -2 -3 -4 -4 -5 -6 -7 -7 -8 -8 -9 -9 -9 -10 -11 -12 -11
20 20 20 20 20 19 19 18 18 17 16 15 14 13 11 9 8 6 4 3 2 2 1 0 -1 -1 -2 -3 -4 -4 -5 -6 -6 -7 -8 -8 -8 -9 -9 -9 -10 -12 -12
20 20 20 20 19 19 18 18 17 17 16 15 14 13 12 10 8 6 4 3 2 2 1 0 -1 -1 -2 -3 -4 -4 -5 -6 -6 -7 -8 -8 -8 -8 -9 -9 -10 -11 -12
19 19 18 19 18 18 18 18 17 17 16 15 14 13 12 10 8 6 5 3 2 1 1 0 -1 -1 -2 -3 -4 -4 -5 -5 -6 -7 -8 -8 -8 -9 -9 -9 -10 -11 -11
17 17 17 17 17 17 17 17 17 17 16 15 14 13 11 10 8 6 5 3 2 1 1 -0 -1 -1 -2 -3 -3 -4 -4 -5 -6 -7 -8 -8 -8 -8 -9 -9 -10 -11 -11
16 16 16 16 16 16 16 17 16 16 15 15 14 13 11 10 9 7 5 3 2 1 0 -0 -1 -1 -2 -3 -3 -4 -4 -5 -6 -7 -8 -8 -8 -9 -9 -9 -10 -10 -11
14 15 15 15 15 15 16 16 16 15 15 14 13 13 12 11 9 7 5 3 2 1 0 -0 -1 -1 -2 -3 -3 -4 -4 -5 -6 -7 -8 -8 -8 -9 -9 -9 -10 -10 -10
14 14 15 15 15 15 15 15 15 15 14 14 13 13 12 10 8 7 5 3 2 1 0 -1 -1 -2 -2 -2 -3 -4 -5 -5 -6 -7 -8 -8 -9 -9 -9 -9 -10 -10 -10
14 14 14 14 14 14 14 14 14 14 14 14 13 13 11 10 8 6 4 3 1 1 -0 -1 -1 -2 -2 -3 -3 -4 -5 -6 -6 -7 -8 -8 -9 -9 -9 -10 -10 -10 -9
13 13 13 14 14 14 13 13 13 13 13 13 13 12 11 10 8 5 3 2 1 0 -0 -1 -1 -2 -2 -3 -3 -4 -6 -6 -7 -7 -8 -8 -9 -9 -9 -9 -9 -9 -9
12 12 13 13 13 13 13 13 13 12 12 12 12 11 10 9 7 5 3 2 1 0 -0 -1 -1 -2 -2 -3 -4 -4 -5 -6 -6 -7 -8 -8 -9 -9 -9 -9 -9 -9 -9
11 12 12 12 12 12 12 12 12 12 11 11 11 10 9 8 6 4 3 2 1 0 -0 -1 -2 -2 -3 -3 -4 -4 -5 -5 -6 -7 -8 -8 -9 -9 -9 -9 -9 -9 -10
11 11 11 11 11 11 11 11 11 10 10 10 9 9 8 7 6 4 3 1 0 -0 -1 -1 -2 -2 -3 -3 -4 -4 -5 -5 -6 -7 -7 -8 -9 -9 -9 -9 -9 -10 -10
10 10 10 10 10 10 10 9 9 9 9 8 8 8 7 6 5 3 1 0 -1 -1 -1 -1 -2 -3 -3 -3 -4 -4 -5 -5 -6 -7 -8 -8 -9 -9 -9 -9 -10 -10 -10
9 9 9 9 9 9 8 8 8 8 8 8 8 7 6 5 4 2 0 -1 -2 -2 -2 -2 -2 -3 -3 -4 -4 -4 -5 -6 -7 -8 -8 -8 -9 -9 -10 -10 -10 -10 -11
8 8 8 8 8 8 7 7 7 7 7 7 7 6 6 4 3 1 -1 -2 -2 -3 -2 -2 -2 -2 -3 -3 -4 -4 -5 -6 -7 -8 -8 -9 -9 -9 -9 -10 -10 -11 -11
7 7 7 7 7 7 7 6 6 6 6 6 6 5 4 3 2 -0 -1 -2 -3 -3 -3 -2 -2 -2 -3 -3 -4 -4 -5 -6 -7 -7 -8 -8 -9 -9 -9 -9 -10 -10 -11
6 6 5 5 5 5 5 5 5 5 5 5 5 4 3 2 1 -1 -2 -2 -2 -2 -2 -1 -2 -2 -3 -3 -4 -5 -5 -6 -7 -8 -8 -8 -8 -9 -9 -9 -10 -10 -11
5 4 4 4 4 4 4 4 4 4 4 4 4 3 2 1 -0 -2 -3 -3 -4 -3 -3 -3 -3 -3 -3 -4 -4 -5 -5 -6 -7 -8 -8 -8 -8 -9 -9 -10 -10 -10 -11
Wind_Speed
16 12 15 15 13 15 17 18 19 16 13 8 7 6 7 6 7 15 19 20 19 19 17 13 12 11 7 6 6 4 5 5 4 4 6 8 9 9 7 10 10 13 16
11 12 13 15 19 19 19 19 21 19 17 14 9 5 5 5 7 13 17 20 20 19 16 15 11 11 7 6 6 5 3 4 3 3 4 5 4 4 8 7 7 9 14
16 13 14 17 18 20 23 21 22 21 19 15 8 4 3 2 5 7 8 17 20 20 18 16 14 12 9 7 7 7 6 5 4 4 3 3 5 7 5 7 8 8 7
14 13 13 15 20 23 19 20 20 20 19 18 16 14 13 12 12 8 9 13 19 19 19 18 16 13 11 7 7 7 6 6 5 4 5 7 6 5 7 5 5 8 10
14 15 16 18 19 17 16 18 18 19 20 20 22 20 17 12 6 6 9 10 12 17 18 18 16 13 11 10 9 6 7 6 6 5 5 7 7 8 8 14 13 8 7
12 14 13 11 12 12 14 16 18 20 20 21 21 22 20 14 10 10 11 10 8 9 15 16 16 14 12 11 10 9 8 8 8 8 7 6 7 7 8 11 17 18 12
10 11 12 13 13 14 16 17 19 21 20 22 23 23 21 18 18 16 14 12 9 9 12 14 13 12 14 14 13 8 9 9 9 9 9 9 10 9 10 13 17 20 18
10 11 12 12 13 14 15 17 20 21 20 22 23 20 18 15 14 15 13 14 12 12 10 14 14 14 14 14 12 8 9 8 10 11 10 10 11 10 11 13 15 19 21
11 11 10 10 11 12 15 18 19 19 20 21 20 19 19 18 16 14 14 11 10 10 12 13 12 13 13 13 10 8 9 8 10 11 11 11 11 11 11 12 13 15 20
11 11 10 10 10 10 10 12 15 18 17 17 18 17 18 19 16 14 15 14 13 11 11 12 11 11 11 11 9 9 9 10 11 10 11 12 11 11 12 13 13 14 17
13 12 11 9 9 9 10 12 14 14 15 17 18 17 17 17 16 16 16 15 13 14 13 13 12 12 11 10 10 10 10 11 12 11 12 15 14 13 13 13 13 14 15
13 12 11 9 8 8 9 11 12 15 16 14 15 17 15 16 17 18 17 15 15 14 14 13 12 12 11 11 11 12 11 11 13 13 13 15 13 15 14 13 15 15 15
14 12 10 9 8 8 8 10 12 13 11 12 14 16 17 18 20 19 17 16 16 15 14 13 13 12 11 11 11 11 12 12 13 13 14 15 15 16 14 15 15 15 15
12 11 10 9 8 7 8 9 11 11 11 12 15 18 20 20 20 18 17 17 17 15 15 14 13 12 11 11 11 11 11 12 13 14 15 15 15 16 15 15 16 15 16
13 11 10 9 8 7 7 9 10 10 12 14 17 20 18 17 16 17 17 16 16 16 14 13 12 11 10 10 11 11 12 13 14 14 14 15 17 20 18 16 13 13 14
12 12 11 11 10 8 8 8 10 11 12 16 18 16 15 16 17 17 16 15 15 13 13 13 12 12 10 16 19 16 12 12 13 13 12 12 15 19 24 27 27 24 19
11 12 11 11 10 10 8 9 9 9 12 15 16 14 14 16 16 16 15 16 16 14 13 13 12 13 14 19 20 21 13 11 10 10 10 11 11 17 11 21 26 24 25
11 11 11 11 10 9 8 8 7 8 11 14 15 14 14 16 14 15 16 15 13 13 13 13 13 12 14 18 19 20 13 9 9 9 10 11 11 13 16 16 15 11 12
11 11 11 10 10 11 9 7 8 8 10 14 15 14 14 15 15 17 17 15 13 13 14 12 13 13 13 17 18 18 8 8 9 10 10 11 11 20 25 18 12 10 11
10 10 10 9 11 11 7 7 9 9 13 14 14 12 13 16 17 18 16 13 13 14 13 12 12 13 12 15 17 17 7 8 9 8 9 14 15 21 23 14 10 12 14
13 11 10 10 11 10 7 9 11 13 13 11 10 11 13 15 15 13 12 11 13 12 12 12 11 11 13 14 17 17 8 8 9 9 6 7 17 21 22 19 9 16 17
12 11 10 11 11 9 8 10 13 13 10 9 10 11 12 12 12 12 12 12 13 13 12 11 10 9 10 13 15 17 15 13 9 7 6 8 17 20 20 15 17 22 18
11 10 10 12 12 10 8 12 14 12 10 10 10 10 10 11 10 12 12 12 12 12 11 11 10 9 8 10 17 17 16 15 8 6 11 14 17 17 12 15 19 16 9
11 10 11 13 14 12 11 11 13 11 10 11 10 8 8 9 10 11 12 12 13 13 12 11 10 9 7 8 7 7 7 10 9 7 9 12 13 11 12 12 11 8 9
10 10 11 13 15 14 14 13 11 10 10 11 9 7 8 9 10 12 12 13 14 15 15 12 11 10 9 12 15 10 8 7 7 5 2 2 4 5 6 7 7 7 8
11 12 13 13 15 14 15 14 11 9 10 10 8 7 6 8 9 9 10 19 18 22 24 18 14 11 11 13 16 16 13 11 10 4 2 3 4 6 7 8 9 8 9
Wind_Direction
239 211 207 205 200 200 202 203 202 198 187 182 186 189 205 203 203 207 206 204 204 203 201 205 213 215 213 221 224 235 260 261 251 273 282 271 257 250 251 257 266 275 282
237 213 202 200 203 205 205 205 205 200 197 198 186 176 174 192 203 204 206 206 204 203 203 205 208 212 213 221 223 215 236 258 259 268 307 313 297 255 249 248 259 267 275
237 222 206 206 206 209 208 207 206 203 200 191 171 149 137 147 180 200 205 205 202 202 203 205 208 211 209 218 222 213 219 244 252 208 232 287 295 309 261 238 251 256 261
233 227 210 208 210 214 209 207 204 203 198 189 190 189 197 203 201 194 195 196 199 201 204 207 209 211 213 216 224 220 214 223 251 236 221 224 239 283 302 277 249 251 265
226 227 219 216 216 212 205 205 202 203 199 196 199 202 209 207 179 177 185 193 198 202 204 207 209 212 216 219 222 223 220 220 235 237 232 239 246 238 261 291 295 280 256
232 232 228 217 215 202 200 199 201 206 201 200 203 206 209 196 181 187 192 196 198 203 207 208 209 213 217 221 224 225 227 230 235 242 238 238 243 249 252 274 291 295 287
251 241 231 219 216 205 202 200 202 208 203 202 207 210 210 202 200 197 198 195 198 205 208 207 208 213 219 224 226 224 230 231 235 241 245 245 247 252 258 269 283 290 292
266 252 241 227 221 211 203 200 205 209 203 205 210 211 208 206 208 202 197 199 203 205 197 202 208 213 218 225 224 227 233 233 237 246 246 250 254 253 254 261 276 289 294
287 273 264 244 229 215 208 205 207 209 206 207 208 209 208 208 208 202 200 200 200 198 197 200 205 213 219 223 223 233 235 236 242 248 250 252 258 256 255 257 259 271 288
298 286 272 254 237 224 213 205 209 212 209 206 207 210 210 210 207 200 201 202 200 196 192 199 205 211 217 221 224 235 239 241 248 249 252 256 259 259 259 259 259 258 266
294 286 278 263 239 220 206 205 209 211 210 209 208 211 209 207 205 206 206 203 199 197 200 201 206 212 218 220 226 235 238 244 253 254 255 259 261 264 265 263 263 263 263
287 286 284 278 256 234 217 212 211 214 215 209 208 212 210 205 207 211 208 201 200 199 201 201 207 214 219 220 226 238 244 244 253 258 259 263 266 266 267 267 267 267 266
301 302 300 288 270 247 226 219 218 221 214 205 209 212 212 210 212 212 207 202 201 200 199 200 207 213 218 223 229 236 244 247 252 256 259 263 266 269 268 268 270 270 270
307 310 309 302 285 258 232 225 227 220 212 209 213 217 218 216 215 212 207 203 201 199 199 202 207 212 217 225 232 236 244 250 254 256 258 260 262 265 268 271 269 269 269
321 321 316 311 304 280 249 232 230 218 211 214 220 224 222 218 216 212 208 203 200 200 197 198 205 211 216 225 231 238 244 248 255 259 258 259 264 269 277 282 280 275 275
323 320 317 314 307 290 266 245 236 222 211 220 227 227 220 217 216 214 207 202 200 196 191 197 203 211 221 237 246 249 243 245 252 261 262 261 270 279 285 290 293 291 289
312 312 310 305 301 294 276 259 246 222 216 226 232 227 222 221 217 212 208 204 199 192 192 198 203 216 228 239 251 259 261 255 253 257 264 272 274 287 283 287 290 289 289
311 309 306 305 301 295 286 271 253 228 226 232 235 228 221 222 217 211 211 207 198 194 195 200 205 216 230 238 249 260 264 261 255 252 257 266 272 277 285 282 283 274 274
296 292 290 290 293 295 292 281 265 245 239 241 239 230 219 219 215 214 212 204 196 195 197 199 202 212 229 236 247 258 255 260 259 256 259 266 270 285 295 300 297 290 287
297 296 298 299 300 302 303 287 275 260 253 250 246 233 219 217 218 217 211 202 197 197 195 200 203 210 221 231 241 252 249 259 266 265 261 275 285 295 302 306 304 302 299
302 302 304 303 300 305 307 290 283 273 268 261 250 236 224 221 221 216 206 197 196 193 195 199 202 208 219 229 239 247 238 247 263 272 268 270 293 300 307 313 308 301 312
308 310 310 307 305 305 297 289 286 282 277 265 253 240 226 218 216 209 203 194 193 193 195 198 203 212 220 227 235 241 246 253 254 265 268 277 296 305 312 315 309 314 324
306 308 308 306 307 306 297 291 293 294 286 272 259 246 227 215 206 203 200 194 194 197 197 197 205 211 209 219 230 235 244 255 259 260 278 292 304 312 313 308 314 323 320
307 310 313 311 310 310 303 289 292 292 286 277 268 247 226 216 207 204 201 200 201 201 199 198 204 206 203 203 211 221 241 252 264 275 284 297 306 308 306 310 314 311 306
305 307 307 305 304 306 304 301 297 294 286 280 270 250 229 217 211 211 211 209 211 207 200 199 195 194 204 211 205 200 213 219 235 247 237 276 300 304 306 306 306 308 313
305 306 304 302 303 305 303 303 299 292 285 284 273 253 233 220 214 214 221 226 221 223 219 208 196 201 201 200 204 212 224 239 251 250 237 276 290 298 306 311 314 314 315
Height
1508 1512 1514 1516 1518 1520 1521 1523 1525 1526 1529 1530 1531 1532 1532 1534 1536 1536 1536 1535 1534 1533 1532 1530 1529 1527 1525 1523 1521 1518 1516 1513 1509 1503 1497 1493 1490 1488 1485 1484 1482 1480 1478
1500 1503 1506 1508 1510 1511 1513 1515 1516 1518 1520 1521 1523 1525 1526 1527 1529 1529 1529 1529 1528 1527 1526 1525 1523 1521 1519 1518 1515 1513 1510 1508 1505 1500 1492 1486 1482 1479 1479 1477 1475 1473 1471
1491 1495 1498 1500 1502 1503 1504 1506 1508 1510 1512 1514 1516 1517 1518 1518 1520 1520 1521 1522 1521 1520 1520 1519 1517 1516 1514 1512 1510 1508 1505 1503 1501 1498 1495 1488 1480 1475 1469 1468 1466 1465 1463
1485 1488 1490 1492 1494 1496 1498 1500 1501 1503 1504 1505 1506 1506 1506 1506 1509 1513 1514 1514 1514 1513 1513 1512 1511 1509 1508 1506 1505 1503 1500 1497 1495 1493 1490 1488 1483 1476 1466 1460 1459 1457 1454
1479 1482 1484 1486 1488 1490 1491 1493 1494 1494 1495 1496 1496 1497 1497 1499 1503 1505 1506 1506 1506 1506 1505 1505 1504 1503 1501 1500 1498 1497 1495 1492 1489 1487 1484 1482 1479 1474 1469 1457 1450 1448 1446
1474 1476 1478 1480 1482 1483 1484 1485 1485 1485 1486 1486 1486 1487 1488 1490 1493 1495 1497 1498 1499 1498 1498 1497 1497 1496 1495 1493 1492 1490 1488 1486 1484 1481 1478 1476 1473 1468 1464 1456 1445 1438 1434
1469 1471 1472 1473 1474 1476 1476 1477 1477 1477 1477 1477 1477 1478 1479 1481 1483 1486 1489 1490 1490 1490 1490 1490 1489 1489 1488 1487 1485 1484 1482 1480 1477 1475 1472 1469 1466 1463 1459 1452 1442 1433 1425
1466 1466 1467 1468 1468 1469 1470 1470 1470 1470 1470 1469 1469 1470 1471 1472 1474 1477 1479 1481 1481 1482 1483 1482 1482 1481 1481 1480 1478 1476 1474 1472 1470 1467 1465 1461 1458 1456 1452 1447 1440 1428 1416
1464 1463 1463 1463 1463 1463 1463 1463 1463 1463 1462 1462 1462 1462 1462 1463 1464 1467 1470 1471 1473 1474 1474 1474 1474 1474 1473 1472 1471 1469 1467 1465 1462 1459 1457 1454 1450 1448 1444 1440 1435 1428 1415
1461 1460 1460 1458 1457 1457 1456 1456 1455 1455 1455 1455 1454 1453 1453 1454 1455 1457 1459 1461 1464 1465 1465 1465 1466 1466 1465 1464 1463 1461 1459 1457 1454 1452 1448 1445 1442 1439 1435 1431 1426 1421 1413
1458 1456 1454 1452 1450 1449 1448 1448 1447 1447 1446 1446 1445 1445 1444 1445 1446 1447 1449 1451 1454 1455 1456 1457 1457 1457 1457 1456 1455 1453 1451 1449 1446 1443 1440 1436 1434 1430 1426 1422 1417 1412 1406
1453 1450 1447 1444 1441 1440 1439 1440 1440 1439 1439 1438 1437 1436 1435 1435 1435 1436 1438 1441 1443 1445 1446 1447 1448 1448 1449 1448 1447 1445 1443 1440 1437 1435 1432 1428 1426 1422 1418 1413 1408 1403 1397
1448 1444 1441 1438 1436 1434 1433 1433 1433 1432 1432 1430 1428 1427 1425 1424 1424 1425 1428 1430 1432 1434 1436 1437 1438 1440 1440 1440 1439 1437 1435 1432 1429 1426 1423 1420 1418 1413 1409 1404 1399 1393 1388
1444 1440 1437 1434 1432 1429 1428 1427 1427 1426 1424 1422 1420 1417 1415 1414 1414 1415 1417 1419 1421 1423 1426 1428 1430 1431 1432 1432 1431 1429 1427 1424 1421 1418 1415 1412 1409 1405 1400 1395 1389 1384 1379
1441 1438 1435 1433 1430 1427 1425 1423 1422 1420 1418 1414 1411 1408 1406 1405 1404 1404 1405 1408 1410 1413 1416 1419 1421 1423 1423 1424 1423 1421 1419 1416 1413 1410 1407 1404 1401 1397 1394 1389 1383 1377 1371
1441 1438 1435 1431 1428 1425 1422 1420 1417 1414 1411 1407 1403 1400 1397 1394 1393 1393 1395 1398 1401 1404 1407 1410 1412 1414 1415 1416 1415 1413 1411 1408 1405 1402 1399 1396 1393 1390 1385 1381 1376 1371 1365
1440 1437 1433 1429 1426 1422 1419 1415 1411 1408 1404 1399 1395 1392 1388 1385 1383 1384 1385 1387 1390 1394 1398 1401 1404 1405 1407 1407 1407 1406 1404 1401 1398 1395 1392 1388 1385 1382 1377 1371 1366 1362 1357
1438 1434 1429 1425 1422 1418 1414 1410 1405 1401 1396 1392 1387 1384 1379 1376 1375 1374 1374 1377 1381 1384 1388 1392 1395 1397 1398 1399 1399 1398 1396 1393 1390 1388 1385 1381 1377 1373 1369 1363 1358 1353 1348
1435 1430 1425 1420 1416 1412 1407 1403 1398 1393 1388 1383 1379 1375 1371 1367 1365 1364 1364 1367 1371 1375 1379 1383 1386 1388 1390 1391 1391 1390 1388 1385 1383 1380 1378 1374 1370 1366 1362 1358 1352 1345 1339
1428 1424 1419 1414 1410 1405 1400 1395 1390 1385 1380 1375 1370 1366 1361 1358 1355 1354 1355 1357 1361 1365 1370 1374 1377 1379 1381 1383 1383 1383 1381 1378 1376 1373 1370 1368 1364 1360 1357 1353 1346 1338 1331
1422 1417 1412 1407 1403 1398 1392 1387 1382 1377 1372 1366 1361 1357 1353 1349 1347 1346 1346 1348 1352 1356 1360 1365 1368 1371 1373 1375 1375 1375 1374 1371 1369 1366 1363 1361 1358 1355 1352 1347 1341 1334 1328
1415 1410 1405 1400 1396 1391 1385 1379 1374 1369 1364 1358 1353 1349 1344 1341 1339 1338 1338 1340 1343 1347 1351 1356 1359 1362 1365 1366 1367 1368 1367 1365 1363 1360 1357 1355 1352 1349 1346 1340 1335 1330 1323
1408 1403 1398 1392 1389 1385 1379 1372 1366 1361 1355 1350 1345 1341 1336 1333 1331 1330 1330 1331 1334 1338 1342 1346 1350 1354 1356 1359 1360 1360 1360 1359 1357 1354 1352 1350 1347 1343 1339 1335 1330 1325 1317
1402 1397 1391 1385 1380 1376 1371 1365 1359 1353 1348 1342 1337 1333 1328 1325 1323 1322 1322 1323 1325 1328 1333 1337 1342 1346 1349 1351 1353 1353 1353 1352 1351 1349 1347 1345 1342 1339 1335 1330 1326 1320 1314
1395 1390 1384 1378 1373 1368 1363 1358 1352 1346 1340 1335 1330 1325 1321 1318 1316 1315 1315 1315 1317 1321 1325 1329 1334 1338 1341 1344 1346 1347 1347 1346 1345 1343 1341 1339 1337 1334 1330 1326 1321 1316 1310
1389 1383 1378 1372 1366 1361 1355 1350 1345 1340 1334 1328 1323 1319 1314 1311 1309 1308 1307 1308 1311 1315 1319 1324 1328 1332 1335 1338 1339 1341 1341 1341 1340 1339 1336 1335 1332 1329 1326 1322 1317 1312 1307